YO8RXT-3 Weather Reports


time (UTC)temp
C
wind
direction
speed
KPH
gust
KPH
rain 1hr
cm
rain 24hr
cm
rain mn
cm
humidity
%
barometer
mb
20260504210503 17 3.2 0.0 0.00 0.00 0.00 39 1015.0
20260504203504 17 3.2 0.0 0.00 0.00 0.00 39 1015.0
20260504200502 17 120 4.8 0.0 0.00 0.00 0.00 37 1015.0
20260504193502 17 0 0.0 0.0 0.00 0.00 0.00 40 1015.0
20260504190502 17 0 0.0 0.0 0.00 0.00 0.00 40 1015.0
20260504183502 21 120 8.0 0.0 0.00 0.00 0.00 33 1014.0
20260504180502 21 120 8.0 0.0 0.00 0.00 0.00 33 1014.0
20260504173502 22 3.2 0.0 0.00 0.00 0.00 31 1014.0
20260504170502 22 100 8.0 0.0 0.00 0.00 0.00 33 1014.0
20260504150503 23 60 16.1 0.0 0.00 0.00 0.00 27 1014.0
20260504140505 25 40 22.5 0.0 0.00 0.00 0.00 26 1014.0
20260504130503 25 20 20.9 0.0 0.00 0.00 0.00 26 1014.0
20260504110503 22 20 9.7 0.0 0.00 0.00 0.00 31 1015.0
20260504100503 22 3.2 0.0 0.00 0.00 0.00 36 1016.0
20260504080502 17 330 9.7 0.0 0.00 0.00 0.00 49 1016.0
20260504050503 10 240 8.0 0.0 0.00 0.00 0.00 58 1016.0
20260504043503 7 190 4.8 0.0 0.00 0.00 0.00 71 1016.0
20260504040503 7 3.2 0.0 0.00 0.00 0.00 71 1016.0
20260504033503 8 3.2 0.0 0.00 0.00 0.00 58 1016.0
20260504030502 8 3.2 0.0 0.00 0.00 0.00 58 1016.0
20260504023503 8 240 8.0 0.0 0.00 0.00 0.00 58 1016.0
20260504020503 8 3.2 0.0 0.00 0.00 0.00 54 1016.0
20260504013503 8 230 1.6 0.0 0.00 0.00 0.00 58 1016.0
20260504010503 8 0 0.0 0.0 0.00 0.00 0.00 58 1016.0
20260504003503 8 3.2 0.0 0.00 0.00 0.00 58 1017.0
20260504000502 7 3.2 0.0 0.00 0.00 0.00 66 1017.0
20260503233503 10 240 3.2 0.0 0.00 0.00 0.00 50 1017.0
20260503230503 10 270 8.0 0.0 0.00 0.00 0.00 50 1017.0
20260503223502 11 250 3.2 0.0 0.00 0.00 0.00 44 1017.0
20260503220504 11 240 3.2 0.0 0.00 0.00 0.00 44 1017.0
20260503213503 11 1.6 0.0 0.00 0.00 0.00 44 1017.0